,,PA_Meas_PMT16A,,PR_Meas_QMR101_102,,RH_Meas_QMH101,,SR_Meas_QMS101,,TA_Meas_QMH101,,GenWind,,GenWind,
time,status,PA,status,PR,status,RH,status,SR,status,TA,status,DirAvg,status,SpdAvg,
2010-07-29, 00:00:04,VALID,918.839,VALID,0,VALID,93.2954,VALID,0.107441,VALID,20.1108,VALID,360,VALID,0.153125,
2010-07-29, 00:01:04,VALID,918.821,VALID,0,VALID,93.2572,VALID,0,VALID,20.1108,VALID,360,VALID,0.0652344,
2010-07-29, 00:02:04,VALID,918.816,VALID,0,VALID,93.1963,VALID,0,VALID,20.1108,VALID,360,VALID,0.573438,
2010-07-29, 00:03:04,VALID,918.794,VALID,0,VALID,93.1658,VALID,0,VALID,20.1108,VALID,360,VALID,0.767187,
2010-07-29, 00:04:04,VALID,918.77,VALID,0,VALID,93.2344,VALID,0,VALID,20.1303,VALID,360,VALID,0.163672,
2010-07-29, 00:05:04,VALID,918.753,VALID,0,VALID,93.1505,VALID,0,VALID,20.1108,VALID,360,VALID,0.273438,
2010-07-29, 00:06:04,VALID,918.775,VALID,0,VALID,93.0514,VALID,0,VALID,20.1108,VALID,360,VALID,0.428906,
2010-07-29, 00:07:04,VALID,918.742,VALID,0,VALID,93.12,VALID,0,VALID,20.0913,VALID,360,VALID,0.289844,
2010-07-29, 00:08:04,VALID,918.747,VALID,0,VALID,93.2877,VALID,0,VALID,20.0718,VALID,360,VALID,0,
2010-07-29, 00:09:04,VALID,918.725,VALID,0,VALID,93.4402,VALID,0,VALID,20.0913,VALID,360,VALID,0.532812,
2010-07-29, 00:10:04,VALID,918.679,VALID,0,VALID,93.2039,VALID,0,VALID,20.0718,VALID,360,VALID,0.762891,
2010-07-29, 00:11:04,VALID,918.687,VALID,0,VALID,93.303,VALID,0,VALID,20.0718,VALID,360,VALID,0.305469,
2010-07-29, 00:12:04,VALID,918.655,VALID,0,VALID,93.1581,VALID,0.107441,VALID,20.0913,VALID,360,VALID,0.808203,
2010-07-29, 00:13:04,VALID,918.657,VALID,0,VALID,93.2725,VALID,0,VALID,20.0718,VALID,360,VALID,0.577734,
2010-07-29, 00:14:04,VALID,918.639,VALID,0,VALID,93.1963,VALID,0.107441,VALID,20.0718,VALID,360,VALID,0.592969,
2010-07-29, 00:15:04,VALID,918.621,VALID,0,VALID,93.1658,VALID,0.107441,VALID,20.0718,VALID,360,VALID,0.230469,
2010-07-29, 00:16:04,VALID,918.604,VALID,0,VALID,93.2496,VALID,0,VALID,20.0328,VALID,360,VALID,0.636719,
2010-07-29, 00:17:04,VALID,918.615,VALID,0,VALID,93.3106,VALID,0.107441,VALID,19.9923,VALID,360,VALID,0.225781,
2010-07-29, 00:18:04,VALID,918.583,VALID,0,VALID,93.4478,VALID,0.107441,VALID,20.0133,VALID,360,VALID,0.0441406,
2010-07-29, 00:19:04,VALID,918.594,VALID,0,VALID,93.5164,VALID,0,VALID,19.9938,VALID,360,VALID,0.344531,
2010-07-29, 00:20:04,VALID,918.567,VALID,0,VALID,93.5851,VALID,0,VALID,20.0133,VALID,360,VALID,0.775,
2010-07-29, 00:21:04,VALID,918.552,VALID,0,VALID,93.4173,VALID,0,VALID,19.9938,VALID,360,VALID,0.50625,
2010-07-29, 00:22:04,VALID,918.496,VALID,0,VALID,93.4859,VALID,0.107441,VALID,19.9938,VALID,360,VALID,0.689062,
2010-07-29, 00:23:04,VALID,918.486,VALID,0,VALID,93.5698,VALID,0,VALID,20.0328,VALID,360,VALID,0.407422,
2010-07-29, 00:24:04,VALID,918.448,VALID,0,VALID,93.4173,VALID,0.107441,VALID,20.0328,VALID,360,VALID,0.128125,
2010-07-29, 00:25:04,VALID,918.415,VALID,0,VALID,93.364,VALID,0,VALID,20.0718,VALID,360,VALID,0.487891,
2010-07-29, 00:26:04,VALID,918.392,VALID,0,VALID,93.3259,VALID,0.107441,VALID,20.0703,VALID,360,VALID,0.194141,
2010-07-29, 00:27:04,VALID,918.364,VALID,0,VALID,93.2039,VALID,0.107441,VALID,20.1303,VALID,360,VALID,0.113672,
2010-07-29, 00:28:04,VALID,918.342,VALID,0,VALID,93.12,VALID,0.107441,VALID,20.1498,VALID,360,VALID,0.377734,
2010-07-29, 00:29:04,VALID,918.304,VALID,0,VALID,93.0972,VALID,0.107441,VALID,20.1303,VALID,360,VALID,0.421484,
2010-07-29, 00:30:04,VALID,918.28,VALID,0,VALID,93.1276,VALID,0.107441,VALID,20.1498,VALID,360,VALID,0.115234,
2010-07-29, 00:31:04,VALID,918.29,VALID,0,VALID,93.1276,VALID,0,VALID,20.1303,VALID,360,VALID,0.538672,
2010-07-29, 00:32:04,VALID,918.266,VALID,0,VALID,93.2191,VALID,0,VALID,20.1513,VALID,360,VALID,0.421875,
2010-07-29, 00:33:04,VALID,918.214,VALID,0,VALID,93.2954,VALID,0,VALID,20.1708,VALID,360,VALID,0.214062,
2010-07-29, 00:34:04,VALID,918.214,VALID,0,VALID,93.4021,VALID,0,VALID,20.1708,VALID,360,VALID,0.396094,
2010-07-29, 00:35:04,VALID,918.207,VALID,0,VALID,93.5012,VALID,0,VALID,20.1903,VALID,360,VALID,0.629687,
2010-07-29, 00:36:04,VALID,918.224,VALID,0,VALID,93.5698,VALID,0,VALID,20.1693,VALID,360,VALID,0.615234,
2010-07-29, 00:37:04,VALID,918.22,VALID,0,VALID,93.6155,VALID,0,VALID,20.1693,VALID,360,VALID,0.3375,
2010-07-29, 00:38:04,VALID,918.21,VALID,0,VALID,93.6232,VALID,0,VALID,20.1708,VALID,360,VALID,0.5625,
2010-07-29, 00:39:04,VALID,918.198,VALID,0,VALID,93.7909,VALID,0,VALID,20.1513,VALID,22,VALID,1.52266,
2010-07-29, 00:40:04,VALID,918.199,VALID,0,VALID,94.2102,VALID,0,VALID,20.1708,VALID,34,VALID,1.62461,
2010-07-29, 00:41:04,VALID,918.224,VALID,0,VALID,94.3321,VALID,0,VALID,20.1708,VALID,45,VALID,0.997656,
2010-07-29, 00:42:04,VALID,918.207,VALID,0,VALID,94.3398,VALID,0,VALID,20.1903,VALID,45,VALID,0.139062,
2010-07-29, 00:43:04,VALID,918.156,VALID,0,VALID,94.3474,VALID,0,VALID,20.2098,VALID,45,VALID,1.11797,
2010-07-29, 00:44:04,VALID,918.169,VALID,0,VALID,94.3245,VALID,0,VALID,20.2293,VALID,45,VALID,0.891797,
2010-07-29, 00:45:04,VALID,918.133,VALID,0,VALID,94.2178,VALID,0,VALID,20.2293,VALID,45,VALID,1.01484,
2010-07-29, 00:46:04,VALID,918.147,VALID,0,VALID,94.1949,VALID,0,VALID,20.2293,VALID,45,VALID,0.642187,
2010-07-29, 00:47:04,VALID,918.127,VALID,0,VALID,94.1949,VALID,0,VALID,20.2489,VALID,45,VALID,0.574219,
2010-07-29, 00:48:04,VALID,918.109,VALID,0,VALID,94.2254,VALID,0.107441,VALID,20.2278,VALID,45,VALID,0.369922,
2010-07-29, 00:49:04,VALID,918.089,VALID,0,VALID,94.1949,VALID,0,VALID,20.2068,VALID,45,VALID,1.07422,
2010-07-29, 00:50:04,VALID,918.095,VALID,0,VALID,94.1721,VALID,0.107441,VALID,20.2068,VALID,45,VALID,1.25039,
2010-07-29, 00:51:04,VALID,918.065,VALID,0,VALID,94.1721,VALID,0.107441,VALID,20.2278,VALID,44,VALID,0.919141,
2010-07-29, 00:52:04,VALID,918.057,VALID,0,VALID,94.2026,VALID,0,VALID,20.2083,VALID,28,VALID,1.58906,
2010-07-29, 00:53:04,VALID,918.016,VALID,0,VALID,94.1644,VALID,0,VALID,20.2083,VALID,28,VALID,1.31953,
2010-07-29, 00:54:04,VALID,918.047,VALID,0,VALID,94.1873,VALID,0.107441,VALID,20.1873,VALID,28,VALID,1.09414,
2010-07-29, 00:55:04,VALID,918.032,VALID,0,VALID,94.1949,VALID,0.107441,VALID,20.2083,VALID,28,VALID,1.12891,
2010-07-29, 00:56:04,VALID,918.01,VALID,0,VALID,94.2407,VALID,0,VALID,20.1888,VALID,28,VALID,0.949219,
2010-07-29, 00:57:04,VALID,918.033,VALID,0,VALID,94.2635,VALID,0,VALID,20.1888,VALID,28,VALID,0.986328,
2010-07-29, 00:58:04,VALID,918.026,VALID,0,VALID,94.2178,VALID,0,VALID,20.2083,VALID,27,VALID,0.774219,
2010-07-29, 00:59:04,VALID,918.075,VALID,0,VALID,94.1721,VALID,0,VALID,20.1888,VALID,27,VALID,0.854297,
2010-07-29, 01:00:04,VALID,918.087,VALID,0,VALID,94.1187,VALID,0,VALID,20.1693,VALID,27,VALID,0.646484,
2010-07-29, 01:01:04,VALID,918.05,VALID,0,VALID,94.1339,VALID,0,VALID,20.1888,VALID,27,VALID,0.696875,
2010-07-29, 01:02:04,VALID,918.066,VALID,0,VALID,94.1111,VALID,0,VALID,20.1888,VALID,27,VALID,1.03984,
2010-07-29, 01:03:04,VALID,918.003,VALID,0,VALID,94.0882,VALID,0,VALID,20.1888,VALID,27,VALID,0.698438,
2010-07-29, 01:04:04,VALID,917.992,VALID,0,VALID,94.1644,VALID,0.107441,VALID,20.2083,VALID,27,VALID,0.932813,
2010-07-29, 01:05:04,VALID,917.964,VALID,0,VALID,94.1797,VALID,0,VALID,20.1888,VALID,27,VALID,1.15898,
2010-07-29, 01:06:04,VALID,917.938,VALID,0,VALID,94.2712,VALID,0,VALID,20.1888,VALID,27,VALID,1.15937,
2010-07-29, 01:07:04,VALID,917.966,VALID,0,VALID,94.355,VALID,0,VALID,20.1693,VALID,27,VALID,0.746094,
2010-07-29, 01:08:04,VALID,917.921,VALID,0,VALID,94.4541,VALID,0,VALID,20.1693,VALID,27,VALID,1.39922,
2010-07-29, 01:09:04,VALID,917.89,VALID,0,VALID,94.477,VALID,0,VALID,20.1693,VALID,27,VALID,1.41875,
2010-07-29, 01:10:04,VALID,917.854,VALID,0,VALID,94.4846,VALID,0,VALID,20.1693,VALID,27,VALID,1.2875,
2010-07-29, 01:11:04,VALID,917.838,VALID,0,VALID,94.4694,VALID,0,VALID,20.1498,VALID,27,VALID,0.809375,
2010-07-29, 01:12:04,VALID,917.867,VALID,0,VALID,94.3855,VALID,0,VALID,20.1483,VALID,27,VALID,1.14414,
2010-07-29, 01:13:04,VALID,917.82,VALID,0,VALID,94.3474,VALID,0,VALID,20.1693,VALID,27,VALID,1.10195,
2010-07-29, 01:14:04,VALID,917.802,VALID,0,VALID,94.3703,VALID,0,VALID,20.1693,VALID,27,VALID,0.812891,
2010-07-29, 01:15:04,VALID,917.819,VALID,0,VALID,94.355,VALID,0,VALID,20.1693,VALID,26,VALID,1.48477,
2010-07-29, 01:16:04,VALID,917.8,VALID,0,VALID,94.3245,VALID,0,VALID,20.1483,VALID,26,VALID,1.01406,
2010-07-29, 01:17:04,VALID,917.779,VALID,0,VALID,94.2864,VALID,0,VALID,20.1483,VALID,26,VALID,0.779297,
2010-07-29, 01:18:04,VALID,917.747,VALID,0,VALID,94.2712,VALID,0,VALID,20.1888,VALID,26,VALID,0.402734,
2010-07-29, 01:19:04,VALID,917.774,VALID,0,VALID,94.1721,VALID,0,VALID,20.1693,VALID,26,VALID,0.718359,
2010-07-29, 01:20:04,VALID,917.784,VALID,0,VALID,94.0348,VALID,0,VALID,20.1693,VALID,25,VALID,1.14141,
2010-07-29, 01:21:04,VALID,917.784,VALID,0,VALID,94.012,VALID,0,VALID,20.1693,VALID,357,VALID,1.12461,
2010-07-29, 01:22:04,VALID,917.806,VALID,0,VALID,94.0577,VALID,0,VALID,20.1693,VALID,357,VALID,1.0875,
2010-07-29, 01:23:04,VALID,917.779,VALID,0,VALID,93.9357,VALID,0,VALID,20.1483,VALID,357,VALID,1.01094,
2010-07-29, 01:24:04,VALID,917.787,VALID,0,VALID,93.89,VALID,0,VALID,20.1693,VALID,357,VALID,1.41328,
2010-07-29, 01:25:04,VALID,917.748,VALID,0,VALID,93.9129,VALID,0.107441,VALID,20.2083,VALID,357,VALID,1.03203,
2010-07-29, 01:26:04,VALID,917.714,VALID,0,VALID,93.8214,VALID,0,VALID,20.2083,VALID,357,VALID,0.775391,
2010-07-29, 01:27:04,VALID,917.73,VALID,0,VALID,93.7909,VALID,0,VALID,20.1678,VALID,357,VALID,1.27461,
2010-07-29, 01:28:04,VALID,917.723,VALID,0,VALID,93.829,VALID,0.107441,VALID,20.1678,VALID,357,VALID,0.617969,
2010-07-29, 01:29:04,VALID,917.75,VALID,0,VALID,93.7833,VALID,0,VALID,20.1888,VALID,358,VALID,0.701172,
2010-07-29, 01:30:04,VALID,917.784,VALID,0,VALID,93.8138,VALID,0.107441,VALID,20.2083,VALID,358,VALID,0.817969,
2010-07-29, 01:31:04,VALID,917.752,VALID,0,VALID,93.8061,VALID,0,VALID,20.2083,VALID,358,VALID,0.755859,
2010-07-29, 01:32:04,VALID,917.722,VALID,0,VALID,93.7909,VALID,0.107441,VALID,20.1873,VALID,358,VALID,0.922266,
2010-07-29, 01:33:04,VALID,917.722,VALID,0,VALID,93.6765,VALID,0,VALID,20.2083,VALID,358,VALID,1.1332,
2010-07-29, 01:34:04,VALID,917.722,VALID,0,VALID,93.5164,VALID,0,VALID,20.1888,VALID,358,VALID,1.01094,
2010-07-29, 01:35:04,VALID,917.7,VALID,0,VALID,93.3182,VALID,0,VALID,20.2083,VALID,27,VALID,0.972266,
2010-07-29, 01:36:04,VALID,917.718,VALID,0,VALID,93.12,VALID,0,VALID,20.2083,VALID,15,VALID,0.552734,
2010-07-29, 01:37:04,VALID,917.676,VALID,0,VALID,93.0514,VALID,0,VALID,20.2278,VALID,15,VALID,0.483594,
2010-07-29, 01:38:04,VALID,917.65,VALID,0,VALID,93.0667,VALID,0.107441,VALID,20.2473,VALID,15,VALID,0.09375,
2010-07-29, 01:39:04,VALID,917.635,VALID,0,VALID,92.9828,VALID,0.107441,VALID,20.2263,VALID,15,VALID,0.853125,
2010-07-29, 01:40:04,VALID,917.648,VALID,0,VALID,93.1734,VALID,0,VALID,20.2473,VALID,15,VALID,1.41875,
2010-07-29, 01:41:04,VALID,917.625,VALID,0,VALID,93.1581,VALID,0,VALID,20.2278,VALID,15,VALID,1.63906,
2010-07-29, 01:42:04,VALID,917.619,VALID,0,VALID,93.2649,VALID,0,VALID,20.2473,VALID,3,VALID,1.4707,
2010-07-29, 01:43:04,VALID,917.637,VALID,0,VALID,93.2572,VALID,0.107441,VALID,20.2263,VALID,9,VALID,1.28867,
2010-07-29, 01:44:04,VALID,917.62,VALID,0,VALID,93.3716,VALID,0.107441,VALID,20.2473,VALID,44,VALID,1.24297,
2010-07-29, 01:45:04,VALID,917.624,VALID,0,VALID,93.3792,VALID,0,VALID,20.2473,VALID,44,VALID,1.01172,
2010-07-29, 01:46:04,VALID,917.594,VALID,0,VALID,93.1886,VALID,0,VALID,20.2278,VALID,44,VALID,0.882031,
2010-07-29, 01:47:04,VALID,917.613,VALID,0,VALID,93.4173,VALID,0,VALID,20.2278,VALID,44,VALID,0.697656,
2010-07-29, 01:48:04,VALID,917.622,VALID,0,VALID,93.5927,VALID,0,VALID,20.2083,VALID,44,VALID,1.23203,
2010-07-29, 01:49:04,VALID,917.62,VALID,0,VALID,93.9434,VALID,0,VALID,20.2083,VALID,42,VALID,1.62109,
2010-07-29, 01:50:04,VALID,917.639,VALID,0,VALID,94.1111,VALID,0,VALID,20.1888,VALID,41,VALID,1.63984,
2010-07-29, 01:51:04,VALID,917.629,VALID,0,VALID,94.2712,VALID,0.107441,VALID,20.2068,VALID,40,VALID,1.41367,
2010-07-29, 01:52:04,VALID,917.66,VALID,0,VALID,94.4008,VALID,0,VALID,20.2083,VALID,354,VALID,0.296094,
2010-07-29, 01:53:04,VALID,917.668,VALID,0,VALID,94.3398,VALID,0,VALID,20.1888,VALID,354,VALID,0.374609,
2010-07-29, 01:54:04,VALID,917.62,VALID,0.2,VALID,94.4694,VALID,0,VALID,20.1483,VALID,354,VALID,0.423047,
2010-07-29, 01:55:04,VALID,917.627,VALID,0,VALID,94.538,VALID,0.107441,VALID,20.1303,VALID,354,VALID,0.504687,
2010-07-29, 01:56:04,VALID,917.613,VALID,0,VALID,94.4008,VALID,0,VALID,20.0913,VALID,354,VALID,0.502734,
2010-07-29, 01:57:04,VALID,917.639,VALID,0,VALID,94.4694,VALID,0,VALID,20.0703,VALID,354,VALID,0.725391,
2010-07-29, 01:58:04,VALID,917.608,VALID,0,VALID,94.6752,VALID,0,VALID,20.0718,VALID,354,VALID,0.532422,
2010-07-29, 01:59:04,VALID,917.582,VALID,0,VALID,94.881,VALID,0,VALID,20.0523,VALID,354,VALID,0.483984,
2010-07-29, 02:00:04,VALID,917.595,VALID,0,VALID,95.1555,VALID,0,VALID,20.0523,VALID,354,VALID,0.50625,
2010-07-29, 02:01:04,VALID,917.614,VALID,0.2,VALID,95.1631,VALID,0,VALID,20.0133,VALID,354,VALID,0.694531,
2010-07-29, 02:02:04,VALID,917.57,VALID,0,VALID,95.2546,VALID,0,VALID,19.9938,VALID,34,VALID,1.46328,
2010-07-29, 02:03:04,VALID,917.584,VALID,0,VALID,95.4299,VALID,0,VALID,19.9938,VALID,38,VALID,1.2875,
2010-07-29, 02:04:04,VALID,917.565,VALID,0,VALID,95.5214,VALID,0,VALID,19.9548,VALID,32,VALID,0.542578,
2010-07-29, 02:05:04,VALID,917.554,VALID,0,VALID,95.5976,VALID,0,VALID,19.9548,VALID,32,VALID,0.299219,
2010-07-29, 02:06:04,VALID,917.556,VALID,0,VALID,95.6434,VALID,0,VALID,19.9548,VALID,32,VALID,0.625781,
2010-07-29, 02:07:04,VALID,917.537,VALID,0,VALID,95.7044,VALID,0,VALID,19.9548,VALID,32,VALID,0.475,
2010-07-29, 02:08:04,VALID,917.506,VALID,0,VALID,95.6129,VALID,0.107441,VALID,19.9353,VALID,22,VALID,1.37812,
2010-07-29, 02:09:04,VALID,917.519,VALID,0,VALID,95.59,VALID,0,VALID,19.9158,VALID,16,VALID,1.85117,
2010-07-29, 02:10:04,VALID,917.51,VALID,0,VALID,95.7577,VALID,0,VALID,19.9158,VALID,24,VALID,1.31016,
2010-07-29, 02:11:04,VALID,917.465,VALID,0,VALID,95.7577,VALID,0,VALID,19.8963,VALID,360,VALID,1.15703,
2010-07-29, 02:12:04,VALID,917.502,VALID,0,VALID,95.7806,VALID,0.107441,VALID,19.8753,VALID,4,VALID,0.871094,
2010-07-29, 02:13:04,VALID,917.469,VALID,0,VALID,95.8263,VALID,0,VALID,19.8963,VALID,4,VALID,0.754687,
2010-07-29, 02:14:04,VALID,917.498,VALID,0,VALID,95.773,VALID,0,VALID,19.8768,VALID,4,VALID,1.2,
2010-07-29, 02:15:04,VALID,917.48,VALID,0,VALID,95.8721,VALID,0,VALID,19.8768,VALID,40,VALID,0.812891,
2010-07-29, 02:16:04,VALID,917.47,VALID,0,VALID,95.9559,VALID,0,VALID,19.8963,VALID,40,VALID,0.846875,
2010-07-29, 02:17:04,VALID,917.417,VALID,0,VALID,95.9712,VALID,0,VALID,19.8768,VALID,40,VALID,0.421094,
2010-07-29, 02:18:04,VALID,917.455,VALID,0,VALID,96.0017,VALID,0,VALID,19.8573,VALID,40,VALID,0.675391,
2010-07-29, 02:19:04,VALID,917.433,VALID,0,VALID,96.0169,VALID,0,VALID,19.8573,VALID,11,VALID,0.879687,
2010-07-29, 02:20:04,VALID,917.454,VALID,0,VALID,96.055,VALID,0,VALID,19.8573,VALID,11,VALID,0.972656,
2010-07-29, 02:21:04,VALID,917.449,VALID,0,VALID,96.1008,VALID,0,VALID,19.8378,VALID,11,VALID,0.325391,
2010-07-29, 02:22:04,VALID,917.412,VALID,0,VALID,96.1313,VALID,0,VALID,19.8573,VALID,11,VALID,1.11328,
2010-07-29, 02:23:04,VALID,917.443,VALID,0,VALID,96.055,VALID,0,VALID,19.8378,VALID,11,VALID,1.12812,
2010-07-29, 02:24:04,VALID,917.427,VALID,0,VALID,96.1389,VALID,0,VALID,19.8378,VALID,11,VALID,0.686719,
2010-07-29, 02:25:04,VALID,917.435,VALID,0,VALID,96.1999,VALID,0,VALID,19.8378,VALID,337,VALID,0.915625,
2010-07-29, 02:26:04,VALID,917.392,VALID,0,VALID,96.2304,VALID,0,VALID,19.8573,VALID,31,VALID,1.91641,
2010-07-29, 02:27:04,VALID,917.38,VALID,0,VALID,96.1999,VALID,0,VALID,19.8378,VALID,32,VALID,1.6332,
2010-07-29, 02:28:04,VALID,917.418,VALID,0,VALID,96.1999,VALID,0,VALID,19.8378,VALID,357,VALID,0.589453,
2010-07-29, 02:29:04,VALID,917.393,VALID,0,VALID,96.2075,VALID,0,VALID,19.8393,VALID,357,VALID,0.552734,
2010-07-29, 02:30:04,VALID,917.37,VALID,0,VALID,96.1999,VALID,0,VALID,19.8378,VALID,15,VALID,0.926562,
2010-07-29, 02:31:04,VALID,917.378,VALID,0,VALID,96.2075,VALID,0,VALID,19.8573,VALID,33,VALID,0.866016,
2010-07-29, 02:32:04,VALID,917.334,VALID,0,VALID,96.2151,VALID,0,VALID,19.8573,VALID,33,VALID,0.442187,
2010-07-29, 02:33:04,VALID,917.313,VALID,0,VALID,96.1923,VALID,0,VALID,19.8573,VALID,32,VALID,0.610547,
2010-07-29, 02:34:04,VALID,917.26,VALID,0,VALID,96.1465,VALID,0,VALID,19.8183,VALID,33,VALID,1.45117,
2010-07-29, 02:35:04,VALID,917.276,VALID,0,VALID,96.2685,VALID,0,VALID,19.8183,VALID,32,VALID,1.15742,
2010-07-29, 02:36:04,VALID,917.319,VALID,0,VALID,96.2837,VALID,0,VALID,19.8378,VALID,32,VALID,0.791406,
2010-07-29, 02:37:04,VALID,917.272,VALID,0,VALID,96.3447,VALID,0,VALID,19.8378,VALID,32,VALID,0.429688,
2010-07-29, 02:38:04,VALID,917.266,VALID,0,VALID,96.3371,VALID,0,VALID,19.8378,VALID,290,VALID,1.29336,
2010-07-29, 02:39:04,VALID,917.276,VALID,0,VALID,96.3981,VALID,0.107441,VALID,19.8378,VALID,18,VALID,0.978516,
2010-07-29, 02:40:04,VALID,917.274,VALID,0,VALID,96.4133,VALID,0,VALID,19.8558,VALID,18,VALID,0.376563,
2010-07-29, 02:41:04,VALID,917.251,VALID,0,VALID,96.4438,VALID,0,VALID,19.8963,VALID,18,VALID,0.760938,
2010-07-29, 02:42:04,VALID,917.262,VALID,0,VALID,96.4438,VALID,0,VALID,19.8963,VALID,18,VALID,0.656641,
2010-07-29, 02:43:04,VALID,917.263,VALID,0,VALID,96.4515,VALID,0,VALID,19.8768,VALID,19,VALID,1.02109,
2010-07-29, 02:44:04,VALID,917.201,VALID,0,VALID,96.4057,VALID,0,VALID,19.8768,VALID,12,VALID,0.924219,
2010-07-29, 02:45:04,VALID,917.188,VALID,0,VALID,96.4057,VALID,0,VALID,19.8378,VALID,25,VALID,1.49922,
2010-07-29, 02:46:04,VALID,917.214,VALID,0,VALID,96.4438,VALID,0,VALID,19.8573,VALID,4,VALID,1.35625,
2010-07-29, 02:47:04,VALID,917.203,VALID,0,VALID,96.4743,VALID,0,VALID,19.8573,VALID,19,VALID,0.733984,
2010-07-29, 02:48:04,VALID,917.246,VALID,0,VALID,96.4972,VALID,0,VALID,19.8573,VALID,22,VALID,0.992188,
2010-07-29, 02:49:04,VALID,917.217,VALID,0,VALID,96.4896,VALID,0,VALID,19.8573,VALID,22,VALID,0.483594,
2010-07-29, 02:50:04,VALID,917.219,VALID,0,VALID,96.5124,VALID,0,VALID,19.8978,VALID,22,VALID,0.958594,
2010-07-29, 02:51:04,VALID,917.183,VALID,0,VALID,96.5048,VALID,0,VALID,19.8573,VALID,45,VALID,0.382813,
2010-07-29, 02:52:04,VALID,917.158,VALID,0,VALID,96.5048,VALID,0,VALID,19.8573,VALID,18,VALID,1.21758,
2010-07-29, 02:53:04,VALID,917.155,VALID,0,VALID,96.5277,VALID,0,VALID,19.8768,VALID,18,VALID,0.158594,
2010-07-29, 02:54:04,VALID,917.13,VALID,0,VALID,96.5734,VALID,0,VALID,19.8768,VALID,18,VALID,0.982031,
2010-07-29, 02:55:04,VALID,917.107,VALID,0,VALID,96.5887,VALID,0,VALID,19.8963,VALID,18,VALID,0.29375,
2010-07-29, 02:56:04,VALID,917.093,VALID,0,VALID,96.5658,VALID,0,VALID,19.8963,VALID,18,VALID,0.900781,
2010-07-29, 02:57:04,VALID,917.08,VALID,0,VALID,96.5658,VALID,0,VALID,19.8963,VALID,6,VALID,0.492188,
2010-07-29, 02:58:04,VALID,917.05,VALID,0,VALID,96.6115,VALID,0,VALID,19.8768,VALID,49,VALID,0.370703,
2010-07-29, 02:59:04,VALID,917.063,VALID,0,VALID,96.6115,VALID,0,VALID,19.8768,VALID,49,VALID,0.564062,
2010-07-29, 03:00:04,VALID,917.029,VALID,0,VALID,96.6115,VALID,0,VALID,19.8768,VALID,44,VALID,0.888672,
2010-07-29, 03:01:04,VALID,917.021,VALID,0,VALID,96.6039,VALID,0,VALID,19.8768,VALID,44,VALID,0.578906,
2010-07-29, 03:02:04,VALID,917.055,VALID,0,VALID,96.642,VALID,0,VALID,19.8768,VALID,44,VALID,0.909375,
2010-07-29, 03:03:04,VALID,917.067,VALID,0,VALID,96.6497,VALID,0,VALID,19.8963,VALID,44,VALID,0.640625,
2010-07-29, 03:04:04,VALID,917.028,VALID,0,VALID,96.6725,VALID,0,VALID,19.8963,VALID,44,VALID,0.783203,
2010-07-29, 03:05:04,VALID,917.066,VALID,0,VALID,96.6573,VALID,0,VALID,19.8963,VALID,44,VALID,0.592188,
2010-07-29, 03:06:04,VALID,917.061,VALID,0,VALID,96.6497,VALID,0,VALID,19.8963,VALID,44,VALID,1.15234,
2010-07-29, 03:07:04,VALID,917.063,VALID,0,VALID,96.6878,VALID,0,VALID,19.9368,VALID,44,VALID,0.55625,
2010-07-29, 03:08:04,VALID,917.09,VALID,0,VALID,96.7107,VALID,0,VALID,19.9548,VALID,43,VALID,0.719141,
2010-07-29, 03:09:04,VALID,917.084,VALID,0,VALID,96.7411,VALID,0,VALID,19.9563,VALID,44,VALID,0.514453,
2010-07-29, 03:10:04,VALID,917.077,VALID,0,VALID,96.6725,VALID,0,VALID,19.9563,VALID,44,VALID,0.471875,
2010-07-29, 03:11:04,VALID,917.023,VALID,0,VALID,96.6192,VALID,0,VALID,19.8978,VALID,43,VALID,1.05234,
2010-07-29, 03:12:04,VALID,917.019,VALID,0,VALID,96.6573,VALID,0,VALID,19.8963,VALID,342,VALID,0.821484,
2010-07-29, 03:13:04,VALID,916.999,VALID,0,VALID,96.642,VALID,0,VALID,19.8783,VALID,316,VALID,0.763672,
2010-07-29, 03:14:04,VALID,917.002,VALID,0,VALID,96.642,VALID,0,VALID,19.8573,VALID,316,VALID,0.619141,
2010-07-29, 03:15:04,VALID,916.966,VALID,0,VALID,96.6268,VALID,0,VALID,19.8573,VALID,76,VALID,0.917969,
2010-07-29, 03:16:04,VALID,916.995,VALID,0,VALID,96.6497,VALID,0,VALID,19.8573,VALID,75,VALID,0.228125,
2010-07-29, 03:17:04,VALID,916.944,VALID,0,VALID,96.703,VALID,0,VALID,19.8573,VALID,278,VALID,0.515625,
2010-07-29, 03:18:04,VALID,916.964,VALID,0,VALID,96.7183,VALID,0,VALID,19.8963,VALID,278,VALID,0.803516,
2010-07-29, 03:19:04,VALID,916.997,VALID,0,VALID,96.642,VALID,0,VALID,19.8573,VALID,297,VALID,1.21289,
2010-07-29, 03:20:04,VALID,916.945,VALID,0,VALID,96.7107,VALID,0,VALID,19.8768,VALID,23,VALID,1.5875,
2010-07-29, 03:21:04,VALID,916.967,VALID,0,VALID,96.6954,VALID,0,VALID,19.8963,VALID,27,VALID,1.83594,
2010-07-29, 03:22:04,VALID,916.945,VALID,0,VALID,96.6802,VALID,0,VALID,19.8978,VALID,23,VALID,1.43555,
2010-07-29, 03:23:04,VALID,916.928,VALID,0,VALID,96.6573,VALID,0,VALID,19.8573,VALID,47,VALID,1.42188,
2010-07-29, 03:24:04,VALID,916.915,VALID,0,VALID,96.5811,VALID,0,VALID,19.7988,VALID,28,VALID,2.29414,
2010-07-29, 03:25:04,VALID,916.924,VALID,0,VALID,96.6344,VALID,0,VALID,19.8183,VALID,35,VALID,1.80156,
2010-07-29, 03:26:04,VALID,916.913,VALID,0,VALID,96.6192,VALID,0.107441,VALID,19.8183,VALID,31,VALID,1.50547,
2010-07-29, 03:27:04,VALID,916.964,VALID,0,VALID,96.5734,VALID,0,VALID,19.7793,VALID,8,VALID,1.65586,
2010-07-29, 03:28:04,VALID,916.955,VALID,0,VALID,96.642,VALID,0,VALID,19.7988,VALID,8,VALID,0.558594,
2010-07-29, 03:29:04,VALID,916.948,VALID,0,VALID,96.642,VALID,0,VALID,19.7988,VALID,8,VALID,0.667188,
2010-07-29, 03:30:04,VALID,916.948,VALID,0,VALID,96.6268,VALID,0,VALID,19.8198,VALID,8,VALID,0.43125,
2010-07-29, 03:31:04,VALID,916.939,VALID,0,VALID,96.642,VALID,0,VALID,19.7793,VALID,36,VALID,2.5707,
2010-07-29, 03:32:04,VALID,916.923,VALID,0,VALID,96.5811,VALID,0,VALID,19.7823,VALID,49,VALID,1.61289,
2010-07-29, 03:33:04,VALID,916.902,VALID,0.2,VALID,96.6115,VALID,0,VALID,19.7823,VALID,26,VALID,0.85,
2010-07-29, 03:34:04,VALID,916.926,VALID,0,VALID,96.5582,VALID,0,VALID,19.7223,VALID,205,VALID,1.13789,
2010-07-29, 03:35:04,VALID,916.883,VALID,0,VALID,96.5734,VALID,0,VALID,19.7028,VALID,203,VALID,0.650391,
2010-07-29, 03:36:04,VALID,916.876,VALID,0,VALID,96.5887,VALID,0,VALID,19.7028,VALID,203,VALID,0.129688,
2010-07-29, 03:37:04,VALID,916.87,VALID,0,VALID,96.5811,VALID,0,VALID,19.6833,VALID,203,VALID,0.553516,
2010-07-29, 03:38:04,VALID,916.864,VALID,0,VALID,96.5277,VALID,0,VALID,19.6248,VALID,110,VALID,0.155078,
2010-07-29, 03:39:04,VALID,916.849,VALID,0,VALID,96.5429,VALID,0,VALID,19.6248,VALID,110,VALID,0.509766,
2010-07-29, 03:40:04,VALID,916.787,VALID,0,VALID,96.4667,VALID,0,VALID,19.6053,VALID,50,VALID,2.09102,
2010-07-29, 03:41:04,VALID,916.817,VALID,0,VALID,96.4743,VALID,0,VALID,19.5858,VALID,266,VALID,0.501562,
2010-07-29, 03:42:04,VALID,916.769,VALID,0,VALID,96.4743,VALID,0,VALID,19.5873,VALID,46,VALID,1.25039,
2010-07-29, 03:43:04,VALID,916.786,VALID,0,VALID,96.4438,VALID,0,VALID,19.5873,VALID,48,VALID,1.66953,
2010-07-29, 03:44:04,VALID,916.741,VALID,0,VALID,96.4286,VALID,0,VALID,19.5678,VALID,40,VALID,1.48047,